sat.trackr.live / text

‹ back to catalog

STARLINK-2576

NORAD 48400 · 2021-038AZ

PAYLOAD ACTIVE UNKNOWN

§ Identity

Operator
Country
US
Launch date
2021-05-04
Launch site
AFETR
Launch vehicle
Mass (kg)
RCS (m²)

Purposes: comms

External: N2YO · Heavens-Above · Gunter

§ Orbital elements

Epoch: 2026-09-20T04:39:05.313600Z

Period
94.01 min
Inclination
53.1606°
Eccentricity
0.0001324
Mean motion
15.31701388 rev/d
Perigee alt
469.8 km
Apogee alt
471.6 km
Semi-major
6,848.9 km
B*
1.1955e-4
RAAN
147.6733°
Arg perigee
99.7194°
Mean anomaly
260.3956°
Rev number
29,724

§ Raw data

STARLINK-25761 48400U 21038AZ  26263.19381150  .00003346  00000+0  11955-3 0  99962 48400  53.1606 147.6733 0001324  99.7194 260.3956 15.31701388297241

JSON: /api/v1/satellites/48400 · /tle

For live sub-satellite position, see the globe view (requires WebGL).

§ Visibility from observer

Set your observer location to see the next 7 days of passes ≥ 10°. The values pass through the URL so the page stays shareable.

No JS? Fill the form by hand. The geolocation button needs JavaScript.